Regional Weather Roundup
Issued by NWS

Home | Current Version | Previous Version | Text Only | Print | Product List | Glossary Off
Versions: 1 2 3 4 5 6 7 8 9 10 11 12 13 14 15 16 17 18 19 20 21 22 23 24 25 26 27 28 29 30 31 32 33 34 35 36 37 38 39 40 41 42 43 44 45 46 47 48 49 50

000
ASUS43 KLOT 211710
RWRIL

ILLINOIS REGIONAL WEATHER ROUNDUP
NATIONAL WEATHER SERVICE CHICAGO/ROMEOVILLE IL
1200 PM CDT THU AUG 21 2014

NOTE: "FAIR" INDICATES FEW OR NO CLOUDS BELOW 12,000 FEET WITH NO
SIGNIFICANT WEATHER AND/OR OBSTRUCTIONS TO VISIBILITY.

* THESE STATIONS ARE NOT UNDER NWS QUALITY CONTROL. THEY ALSO MAY NOT
  REPORT WEATHER SUCH AS PRECIPITATION OR FOG.

ILZ001-002-007-009-015-016-024-211800-
NORTHWEST ILLINOIS

CITY           SKY/WX    TMP DP  RH WIND       PRES   REMARKS
MOLINE         CLOUDY    80  72  76 SE6       29.92F HX  84
STERLING*      CLOUDY    75  72  88 SW5       29.94F
SAVANNA*       CLOUDY    78  73  83 S10       29.92F HX  81
$$

ILZ003-004-008-010-011-017-018-211800-
NORTH CENTRAL ILLINOIS

CITY           SKY/WX    TMP DP  RH WIND       PRES   REMARKS
ROCKFORD       TSTM      75  71  87 SW5       29.96S
FREEPORT*      TSTM      73  71  93 SE5       29.96F
ROCHELLE*      CLOUDY    73  72  94 CALM      29.96S THUNDER
DE KALB*       RAIN      72  71  95 S7        29.96F
PERU*          CLOUDY    78  72  80 S8        29.95F HX  81
$$

ILZ005-006-012>014-019>023-211800-
NORTHEAST ILLINOIS

CITY           SKY/WX    TMP DP  RH WIND       PRES   REMARKS
CHICAGO-OHARE  CLOUDY    77  69  76 SW7       29.95R
CHICAGO-MIDWAY CLOUDY    78  73  84 SW8       29.95R HX  81
AURORA         CLOUDY    76  71  85 SW7       29.96R
LANSING*       CLOUDY    76  73  90 S9        29.96R
JOLIET*        CLOUDY    78  72  81 S8G16     29.96F HX  80
WAUKEGAN       CLOUDY    75  69  81 S9        29.94S
DUPAGE AIRPORT LGT RAIN  76  72  87 SW7       29.95S
KANKAKEE*      CLOUDY    79  74  85 S12       29.98F HX  83
WHEELING       CLOUDY    77  71  82 S6        29.96R
MORRIS*        CLOUDY    79  72  80 S10       29.96S HX  82
ROMEOVILLE*    CLOUDY    76  74  92 SW8       29.96S
NORTHERLY ISL    N/A     76  70  82 S9          N/A
$$

LMZ740>746-211800-
SOUTHERN LAKE MICHIGAN

STATION/POSITION SKY/WX   TEMP    WIND        PRES    VSBY  WAVE
                          AIR SEA DIR/SP/G                  HT/PER
                          (F)     (DEG/KT/KT) (MB)    (MI)  (FT/S)
SOUTHERN BUOY              69 69  120/  2/  4 1013.8R         0
WAUKEGAN HARBOR            73     160/  6/  7   N/A
HARRISON CRIB              74     190/ 10/ 11   N/A
BURNHAM HARBOR             76     220/  7/  9   N/A
CALUMET HARBOR             75     190/ 10/ 14 1013.1R
MICHIGAN CITY              73     160/  4/  7   N/A
MICHIGAN CITY 6N           73 71  190/  2/  4   N/A           1
ST. JOSEPH                 72 71  210/  6/  8   N/A           1/ 3
$$

ILZ025>027-034>036-040-047-049-050-058-095>099-211800-
WEST-CENTRAL ILLINOIS

CITY           SKY/WX    TMP DP  RH WIND       PRES   REMARKS
QUINCY         MOSUNNY   86  74  67 SW13      29.95S HX  94
GALESBURG*     CLOUDY    83  73  71 SW8       29.94F HX  89
MACOMB*        CLOUDY    82  74  75 SW10G16   29.96S HX  88
JACKSONVILLE*  PTSUNNY   87  75  69 SW13G18   29.98F HX  96
PITTSFIELD*    MOSUNNY   87  73  63 SW13G20   29.98F HX  94
$$

ILZ028>032-037-038-041>044-048-051>054-059>061-211800-
CENTRAL ILLINOIS

CITY           SKY/WX    TMP DP  RH WIND       PRES   REMARKS
PONTIAC        CLOUDY    82  75  78 S8        29.97F HX  89
DECATUR        CLOUDY    85  73  67 SW14      30.00F HX  91
PEORIA         PTSUNNY   84  72  67 SW8       29.96S HX  89
LACON*         CLOUDY    82  71  70 SW3       29.95S HX  86
LINCOLN*       PTSUNNY   86  72  62 SW7       29.94F HX  93
SPRINGFIELD    PTSUNNY   86  74  67 SW12      29.98F HX  94
TAYLORVILLE    CLOUDY    81  73  78 SW10      30.00F HX  85
$$

ILZ033-039-045-046-055>057-062-063-211800-
EAST-CENTRAL ILLINOIS

CITY           SKY/WX    TMP DP  RH WIND       PRES   REMARKS
CHAMPAIGN      PTSUNNY   83  74  74 SW10      30.01F HX  89
DANVILLE*      RAIN      82  75  79 E3        29.99S HX  88
RANTOUL*       PTSUNNY   85  73  65 W9        30.01S HX  92
MATTOON        MOSUNNY   86  73  65 W9        30.02F HX  93
PARIS*         CLOUDY    83  76  77 SW8       30.03F HX  92
$$

ILZ079-100>102-211800-
SOUTHWEST ILLINOIS

CITY           SKY/WX    TMP DP  RH WIND       PRES   REMARKS
ALTON          PTSUNNY   86  77  74 S12       30.01  HX  97
BELLEVILLE     PTSUNNY   88  77  68 VRB1      30.02S HX 100
CAHOKIA*       PTSUNNY   88  75  65 SW7       30.01F HX  97
SPARTA*        MOSUNNY   87  75  67 SW7       30.05S HX  96
$$

ILZ064>066-069>071-074>076-080>082-084>086-088>090-092>094-211800-
SOUTH-CENTRAL ILLINOIS

CITY           SKY/WX    TMP DP  RH WIND       PRES   REMARKS
CARBONDALE     MOSUNNY   88  74  63 SW9       30.05S HX  96
CAIRO*         SUNNY     91  73  55 SW10      30.06F HX 100
MARION         MOSUNNY   88  75  66 SW8       30.06S HX  97
MT. VERNON     PTSUNNY   88  73  62 SW7       30.05F HX  96
CENTRALIA*     PTSUNNY   91  73  54 SW8       30.04F HX  99
SALEM*         PTSUNNY   88  77  68 SW8       30.05S HX 100
$$

ILZ067-068-072-073-078-083-087-091-211800-
SOUTHEAST ILLINOIS

CITY           SKY/WX    TMP DP  RH WIND       PRES   REMARKS
LAWRENCEVILLE  PTSUNNY   86  75  69 SW10G17   30.05S HX  95
FLORA*         PTSUNNY   85  73  66 W9        30.05S HX  92
FAIRFIELD*     MOSUNNY   88  81  79 SW9       30.05S HX 105
HARRISBURG*    MOSUNNY   88  74  63 SW12G17   30.07S HX  96
ROBINSON*      PTSUNNY   85  77  76 SW9       30.05S HX  95
CARMI*         SUNNY     90  79  70 SW9       30.05S HX 105
$$

ABBREVIATIONS USED IN REMARKS
   TC - TEMPERATURE IN CELSIUS
  WCI - WIND CHILL INDEX
   HX - HEAT INDEX
  VSB - VISIBILITY
$$




USA.gov is the U.S. government's official web portal to all federal, state and local government web resources and services.